Wetbulb
68.64 66.60 66.61 68.23 68.47 67.96 68.74 69.91 70.64 72.50 67.18 63.43 62.72 64.94 69.76 70.46 71.05 70.62 70.64 69.77 69.54 67.49
66.94 67.05 66.66 68.01 68.38 67.56 69.66 69.83 69.32 70.39 68.08 63.90 61.29 62.67 65.60 69.39 69.58 70.06 70.36 69.87 70.29 69.78
67.18 65.62 66.58 65.55 67.09 68.04 69.16 69.15 69.17 70.20 65.01 60.75 61.44 62.01 66.55 67.64 68.86 69.36 70.15 69.71 70.04 69.12
63.80 64.22 63.79 64.16 64.25 64.60 66.33 68.18 67.85 68.36 67.17 65.99 65.54 60.71 60.37 59.10 60.58 67.76 68.27 68.82 68.58 68.05
63.26 63.42 63.30 63.44 63.58 64.00 62.88 63.54 64.88 67.09 66.61 65.26 62.77 58.17 56.60 54.41 61.78 63.79 66.06 66.81 66.15 65.99
59.07 60.74 61.63 61.33 61.74 62.39 60.29 60.42 61.52 62.92 64.02 64.71 62.95 62.12 64.20 63.51 64.37 62.58 63.40 64.16 64.50 64.53
57.01 60.04 60.64 60.56 59.70 59.69 59.14 58.17 58.47 59.56 61.47 62.40 62.85 62.99 62.54 63.02 63.57 62.79 62.98 63.53 63.47 62.70
57.29 56.88 58.91 58.49 58.41 58.74 57.90 57.88 58.04 57.86 59.21 59.95 61.98 61.30 61.91 61.54 62.65 63.05 62.74 63.64 62.62 62.82
55.33 55.74 55.54 57.75 57.98 58.14 57.61 56.82 56.71 57.47 58.69 59.38 59.82 52.10 51.62 60.34 62.51 63.11 62.83 61.54 61.20 61.71
54.41 54.31 54.66 54.86 57.12 56.92 56.88 56.13 54.60 56.04 56.58 57.08 59.23 53.22 49.53 49.22 61.77 61.41 61.79 60.87 61.26 60.43
53.05 53.02 53.42 54.15 53.73 55.96 56.73 56.08 55.26 55.29 55.78 56.80 57.99 50.15 47.71 49.01 57.34 59.92 62.53 62.38 62.35 62.25
50.65 49.43 48.97 50.40 53.57 53.95 55.77 55.90 55.18 54.66 54.04 54.22 56.21 50.40 48.59 50.68 57.50 57.40 57.72 60.84 63.02 62.64
49.35 48.76 47.85 47.84 48.50 52.45 52.98 54.55 55.55 55.27 55.79 54.05 55.50 50.23 46.04 49.57 58.43 57.01 57.02 55.59 62.28 53.16
48.76 47.93 48.43 47.79 47.45 47.80 50.60 51.46 52.83 53.68 54.65 54.98 55.27 56.79 47.48 45.00 55.00 56.50 57.94 57.77 58.30 59.58
MSLP
1004.18 1004.04 1003.79 1003.50 1003.30 1003.03 1002.62 1001.78 1001.38 1001.62 1002.54 1001.92 1004.86 1004.58 1004.31 1002.39 1001.69 1002.32 1003.45 1004.44 1005.02 1005.31
1004.01 1003.76 1003.55 1003.30 1003.01 1002.73 1002.28 1001.48 1001.09 1001.24 1002.05 1002.68 1001.79 1001.52 1001.19 1001.92 999.67 1000.47 1002.23 1003.55 1004.09 1004.79
1003.50 1003.58 1003.40 1003.38 1002.82 1002.27 1001.88 1001.42 1001.10 1001.06 1001.73 1001.93 1002.43 1003.09 1002.01 1002.60 999.29 1000.23 1000.99 1002.69 1003.52 1003.92
1003.55 1003.60 1003.67 1003.49 1003.21 1002.74 1002.18 1001.39 1000.86 1000.86 1000.93 1001.07 1002.30 1003.34 1002.40 1000.75 1001.91 1000.31 1000.79 1001.91 1003.02 1003.03
1003.70 1003.65 1003.88 1003.64 1003.05 1002.63 1002.28 1001.88 1000.95 1000.29 999.90 999.95 999.80 1000.67 1001.06 1000.91 1002.07 1000.49 1000.61 1001.97 1002.24 1003.06
1003.82 1004.05 1003.97 1003.77 1003.29 1002.65 1002.34 1002.04 1001.66 1000.83 999.75 999.01 998.96 999.58 999.70 1000.86 1001.97 1001.32 1001.26 1001.16 1000.98 1002.29
1003.99 1003.80 1003.72 1003.63 1003.45 1002.96 1002.16 1001.76 1002.23 1001.83 1001.92 998.29 998.67 998.82 999.66 1000.44 1001.30 1001.18 1001.02 1000.80 1001.52 1001.74
1003.81 1003.64 1003.26 1003.22 1003.10 1002.91 1002.47 1001.64 1000.88 1001.54 1002.16 1001.94 998.85 998.98 999.39 1000.12 1000.84 1001.02 1001.03 1001.01 1001.01 1001.65
1003.47 1003.31 1002.98 1002.59 1002.36 1002.35 1002.20 1001.90 1001.16 1001.13 1001.74 1002.30 1000.28 1000.21 999.33 999.25 999.59 999.85 1000.16 1000.53 1001.05 1001.65
1002.94 1002.76 1002.38 1002.03 1001.59 1001.62 1001.79 1001.70 1001.17 1001.02 1001.49 1002.40 1002.30 1002.02 1001.43 1000.42 1000.12 999.84 1000.32 1000.81 1001.13 1001.49
1002.64 1002.14 1001.81 1001.39 1001.21 1001.05 1001.09 1001.20 1001.04 1000.61 1000.47 1000.84 1000.65 1000.66 1000.47 1001.11 1000.34 1000.43 1000.47 1000.54 1001.00 1001.56
1002.53 1002.33 1002.19 1001.87 1000.51 1000.47 1000.33 1000.49 1000.45 1000.38 1000.10 1000.01 1000.17 999.77 999.74 1000.69 1000.36 1000.41 1000.50 1000.82 1000.18 1001.02
1002.36 1002.26 1001.94 1001.71 1001.69 1000.59 1000.04 999.97 999.63 999.46 999.39 999.25 999.10 999.22 999.48 999.98 1000.20 1000.63 1000.43 1000.25 998.90 1000.22
1001.56 1001.51 1001.50 1001.25 1001.05 1001.07 1000.38 999.70 999.51 999.04 998.75 998.55 998.54 998.58 998.88 999.52 999.97 999.84 1000.37 1000.23 1000.42 1000.02
Wind_Speed
7 6 7 8 9 9 11 13 17 3 10 14 14 16 21 16 14 13 10 11 8 4
7 8 8 9 8 9 10 12 16 11 11 15 26 32 29 20 18 13 12 12 11 7
3 7 8 9 11 11 11 13 15 15 10 15 14 20 7 12 7 10 9 7 8 8
8 7 9 8 9 9 10 11 15 15 6 9 10 5 2 5 24 11 8 6 8 9
4 4 5 6 7 8 10 12 17 14 10 8 10 10 12 8 28 7 8 8 7 7
6 8 5 7 8 7 9 12 19 16 14 11 13 11 12 24 17 6 3 6 9 8
9 8 8 8 11 9 5 5 10 14 22 8 2 3 5 5 5 6 6 6 5 7
10 12 9 9 11 12 10 7 9 8 15 22 6 9 8 10 10 7 7 7 7 8
12 13 13 10 8 9 10 9 10 7 5 11 14 20 7 7 5 6 6 6 6 6
14 15 14 14 9 9 10 11 12 9 5 6 5 20 15 11 4 6 5 6 7 8
15 15 16 13 14 9 10 11 12 12 12 10 10 11 6 5 5 5 6 8 6 6
15 15 14 20 12 10 10 11 11 13 14 15 14 14 12 5 3 2 8 13 12 11
13 15 16 15 14 14 7 11 10 12 13 16 13 13 12 7 4 6 7 20 9 14
15 14 16 13 11 13 13 11 13 13 11 13 11 11 14 15 11 9 8 7 14 9
Wind_Direction
303 286 283 255 249 260 267 273 281 189 185 127 293 278 260 239 206 188 183 180 199 193
284 279 274 280 290 286 284 269 272 265 194 196 212 233 235 236 208 176 173 181 186 190
322 325 321 338 299 264 272 276 282 287 202 226 235 248 276 272 255 198 165 173 165 172
10 358 344 322 330 332 322 286 278 280 271 214 186 147 253 351 282 222 168 157 169 160
334 331 327 316 322 333 330 330 304 272 260 209 226 170 169 143 270 244 167 174 162 178
317 316 328 316 336 347 8 344 317 323 283 215 203 192 205 173 218 217 185 149 151 164
307 275 274 288 308 310 320 344 316 334 317 248 231 202 139 178 200 203 216 165 166 132
295 292 254 259 270 282 295 306 306 353 318 314 223 220 201 195 193 201 187 173 144 148
292 284 285 259 240 258 277 284 294 316 359 313 323 344 225 155 180 180 170 154 156 159
275 275 273 278 245 233 248 262 271 276 268 284 301 292 285 318 223 176 191 179 172 185
300 286 279 272 282 236 220 232 248 260 268 265 257 255 309 225 293 304 222 184 189 195
293 299 312 314 259 271 241 215 230 242 255 257 254 257 256 169 174 251 294 273 186 197
287 289 290 287 323 304 278 287 241 236 237 243 250 259 261 178 200 181 184 267 245 199
268 277 281 281 279 285 303 279 276 269 249 248 255 256 244 212 232 236 214 230 262 254